Weather History for KUTA - October, 2012

Change the Weather History Date:

Sunday, October 14, 2012

  Actual Average (KMEM) Record (KMEM)
Temperature  
Mean Temperature 70 °F 65 °F  
Max Temperature 77 °F 75 °F 90 °F (1963)
Min Temperature 62 °F 54 °F 39 °F (1946)
Degree Days  
Heating Degree Days 0 3  
Month to date heating degree days 31  
Since 1 July heating degree days 42  
Cooling Degree Days 4 3  
Month to date cooling degree days 58  
Year to date cooling degree days 2209  
Growing Degree Days 20 (Base 50)    
Moisture  
Dew Point 63 °F    
Average Humidity 80    
Maximum Humidity 94    
Minimum Humidity 65    
Precipitation  
Precipitation 0.35 in 0.13 in 1.87 in (1919)
Month to date precipitation 1.66  
Year to date precipitation 40.13  
Snow  
Snow 0.00 in 0.00 in 0.00 in (2002)
Month to date snowfall 0.0  
Since 1 July snowfall 0.0  
Since 1 September snowfall 0.0  
Snow Depth -    
Sea Level Pressure  
Sea Level Pressure 29.97 in    
Wind  
Wind Speed 16 mph (SSW)    
Max Wind Speed 28 mph    
Max Gust Speed 34 mph    
Visibility 10 miles    
Events Rain , Thunderstorm    
T = Trace of Precipitation, MM = Missing Value Source: NWS Daily Summary

Daily Weather History Graph

Daily Weather History Graph

Search for Another Location

Airport or City:

Trip Planner

Search our weather history database for the weather conditions in past years. The results will help you decide how hot, cold, wet, or windy it might be!

Date:

Astronomy

Oct. 14, 2012 Rise Set
Actual Time 7:06 AM CDT 6:27 PM CDT
Civil Twilight 6:41 AM CDT 6:52 PM CDT
Nautical Twilight 6:11 AM CDT 7:21 PM CDT
Astronomical Twilight 5:42 AM CDT 7:51 PM CDT
Moon 6:06 AM CDT (10/14) 5:47 PM CDT (10/14)
Length of Visible Light 12h 11m
Length of Day
11h 20m
Waning Crescent, 1% of the Moon is Illuminated
Oct 14
Waning Crescent
Oct 15
New
Oct 21
First Quarter
Oct 29
Full
Nov 6
Last Quarter

Hourly Weather History & Observations

Time (CDT) Temp. Dew Point Humidity Pressure Visibility Wind Dir Wind Speed Gust Speed Precip Events Conditions
12:15 AM 69.8 °F 60.8 °F 73% 29.98 in 10.0 mi SSE 13.8 mph - N/A   Clear
12:35 AM 69.8 °F 62.6 °F 78% 29.97 in 10.0 mi SSE 15.0 mph - N/A   Clear
12:55 AM 71.6 °F 62.6 °F 73% 29.96 in 10.0 mi South 16.1 mph - N/A   Clear
1:15 AM 71.6 °F 62.6 °F 73% 29.96 in 10.0 mi South 20.7 mph 26.5 mph N/A   Clear
1:35 AM 71.6 °F 62.6 °F 73% 29.95 in 10.0 mi South 17.3 mph 23.0 mph N/A   Clear
1:55 AM 71.6 °F 62.6 °F 73% 29.95 in 10.0 mi South 19.6 mph - N/A   Clear
2:15 AM 71.6 °F 64.4 °F 78% 29.95 in 10.0 mi South 15.0 mph 20.7 mph N/A   Clear
2:35 AM 71.6 °F 64.4 °F 78% 29.97 in 10.0 mi South 19.6 mph 25.3 mph N/A   Scattered Clouds
2:55 AM 71.6 °F 64.4 °F 78% 29.98 in 10.0 mi South 16.1 mph 23.0 mph N/A   Mostly Cloudy
3:15 AM 71.6 °F 64.4 °F 78% 29.97 in 10.0 mi South 18.4 mph 25.3 mph N/A   Overcast
3:35 AM 71.6 °F 64.4 °F 78% 29.97 in 10.0 mi South 16.1 mph 23.0 mph N/A   Overcast
3:55 AM 71.6 °F 64.4 °F 78% 29.96 in 10.0 mi South 16.1 mph 23.0 mph N/A   Overcast
4:15 AM 71.6 °F 66.2 °F 83% 29.98 in 10.0 mi South 15.0 mph 24.2 mph N/A   Overcast
4:35 AM 71.6 °F 66.2 °F 83% 29.99 in 10.0 mi South 19.6 mph 25.3 mph N/A   Overcast
4:55 AM 71.6 °F 66.2 °F 83% 30.00 in 10.0 mi SSW 16.1 mph 21.9 mph N/A Rain Light Rain
5:15 AM 71.6 °F 66.2 °F 83% 30.00 in 10.0 mi South 18.4 mph 23.0 mph N/A   Overcast
5:35 AM 71.6 °F 64.4 °F 78% 30.02 in 10.0 mi West 20.7 mph 28.8 mph N/A Rain Light Rain
5:55 AM 64.4 °F 62.6 °F 94% 30.00 in 3.0 mi SSW 17.3 mph 23.0 mph 0.10 in Rain Rain
6:15 AM 64.4 °F 60.8 °F 88% 30.02 in 7.0 mi South 15.0 mph 19.6 mph 0.09 in Rain , Thunderstorm Rain
6:35 AM 64.4 °F 60.8 °F 88% 30.02 in 5.0 mi South 16.1 mph 21.9 mph 0.14 in Rain Rain
6:55 AM 62.6 °F 60.8 °F 94% 30.02 in 10.0 mi South 15.0 mph - 0.15 in Rain Light Rain
7:15 AM 64.4 °F 60.8 °F 88% 30.03 in 5.0 mi South 23.0 mph 31.1 mph 0.03 in Rain Rain
7:35 AM 64.4 °F 60.8 °F 88% 30.02 in 5.0 mi South 23.0 mph 29.9 mph 0.08 in Rain Rain
7:55 AM 64.4 °F 60.8 °F 88% 30.01 in 10.0 mi South 19.6 mph 29.9 mph 0.10 in Rain Light Rain
8:15 AM 64.4 °F 60.8 °F 88% 30.00 in 10.0 mi South 19.6 mph 26.5 mph N/A Rain Light Rain
8:35 AM 64.4 °F 60.8 °F 88% 29.97 in 10.0 mi South 24.2 mph 29.9 mph N/A   Light Drizzle
8:55 AM 64.4 °F 60.8 °F 88% 29.96 in 10.0 mi South 23.0 mph 29.9 mph N/A   Clear
9:15 AM 64.4 °F 60.8 °F 88% 29.97 in 10.0 mi South 19.6 mph 29.9 mph N/A   Clear
9:35 AM 66.2 °F 60.8 °F 83% 29.95 in 10.0 mi South 20.7 mph 27.6 mph N/A Rain Light Rain
9:55 AM 66.2 °F 60.8 °F 83% 30.00 in 10.0 mi SSW 16.1 mph 21.9 mph N/A   Scattered Clouds
10:15 AM 66.2 °F 60.8 °F 83% 30.01 in 10.0 mi SSW 15.0 mph - N/A   Clear
10:35 AM 68.0 °F 62.6 °F 83% 30.02 in 10.0 mi SSW 21.9 mph 32.2 mph N/A   Clear
10:55 AM 68.0 °F 62.6 °F 83% 30.01 in 10.0 mi South 18.4 mph 27.6 mph N/A   Clear
11:15 AM 68.0 °F 62.6 °F 83% 30.00 in 10.0 mi SSW 20.7 mph 26.5 mph N/A   Clear
11:35 AM 69.8 °F 62.6 °F 78% 29.99 in 10.0 mi SSW 27.6 mph 33.4 mph N/A   Clear
11:55 AM 69.8 °F 62.6 °F 78% 29.98 in 10.0 mi South 21.9 mph 27.6 mph N/A   Clear
12:15 PM 71.6 °F 62.6 °F 73% 29.98 in 10.0 mi SSW 20.7 mph 31.1 mph N/A   Scattered Clouds
12:35 PM 71.6 °F 64.4 °F 78% 29.98 in 10.0 mi SSW 21.9 mph 28.8 mph N/A   Scattered Clouds
12:55 PM 73.4 °F 64.4 °F 73% 29.97 in 10.0 mi SSW 21.9 mph 34.5 mph N/A   Scattered Clouds
1:15 PM 73.4 °F 64.4 °F 73% 29.97 in 10.0 mi SSW 18.4 mph 33.4 mph N/A   Scattered Clouds
1:35 PM 73.4 °F 64.4 °F 73% 29.96 in 10.0 mi SW 17.3 mph 25.3 mph N/A   Scattered Clouds
1:55 PM 73.4 °F 64.4 °F 73% 29.95 in 10.0 mi SW 18.4 mph 26.5 mph N/A   Scattered Clouds
2:15 PM 75.2 °F 64.4 °F 69% 29.94 in 10.0 mi SSW 20.7 mph 26.5 mph N/A   Scattered Clouds
2:35 PM 73.4 °F 64.4 °F 73% 29.94 in 10.0 mi SW 17.3 mph 26.5 mph N/A   Mostly Cloudy
3:15 PM 77.0 °F 66.2 °F 69% 29.93 in 10.0 mi SW 15.0 mph 24.2 mph N/A   Scattered Clouds
3:35 PM 77.0 °F 66.2 °F 69% 29.93 in 10.0 mi SW 20.7 mph 25.3 mph N/A   Scattered Clouds
3:55 PM 77.0 °F 66.2 °F 69% 29.93 in 10.0 mi WSW 17.3 mph - N/A   Scattered Clouds
4:15 PM 77.0 °F 66.2 °F 69% 29.93 in 10.0 mi SW 19.6 mph - N/A   Scattered Clouds
4:35 PM 77.0 °F 66.2 °F 69% 29.93 in 10.0 mi SW 17.3 mph 21.9 mph N/A   Scattered Clouds
4:55 PM 77.0 °F 64.4 °F 65% 29.93 in 10.0 mi SW 11.5 mph 21.9 mph N/A   Clear
5:15 PM 77.0 °F 64.4 °F 65% 29.93 in 10.0 mi WSW 11.5 mph - N/A   Scattered Clouds
5:35 PM 75.2 °F 66.2 °F 73% 29.93 in 10.0 mi SW 9.2 mph - N/A   Scattered Clouds
5:55 PM 73.4 °F 66.2 °F 78% 29.93 in 10.0 mi WSW 6.9 mph - N/A   Scattered Clouds
6:15 PM 73.4 °F 64.4 °F 73% 29.94 in 10.0 mi WSW 8.1 mph - N/A   Scattered Clouds
6:55 PM 69.8 °F 62.6 °F 78% 29.95 in 10.0 mi West 5.8 mph - N/A   Clear
7:15 PM 69.8 °F 62.6 °F 78% 29.95 in 10.0 mi West 5.8 mph - N/A   Clear
7:35 PM 68.0 °F 60.8 °F 78% 29.95 in 10.0 mi West 5.8 mph - N/A   Clear
7:55 PM 64.4 °F 60.8 °F 88% 29.96 in 10.0 mi Calm Calm - N/A   Clear
8:15 PM 64.4 °F 60.8 °F 88% 29.96 in 10.0 mi Calm Calm - N/A   Clear
8:35 PM 64.4 °F 60.8 °F 88% 29.97 in 10.0 mi WSW 3.5 mph - N/A   Clear
8:55 PM 64.4 °F 60.8 °F 88% 29.98 in 10.0 mi Calm Calm - N/A   Clear
9:15 PM 64.4 °F 60.8 °F 88% 29.98 in 10.0 mi Calm Calm - N/A   Clear
9:35 PM 64.4 °F 60.8 °F 88% 29.98 in 10.0 mi WSW 4.6 mph - N/A   Clear
9:55 PM 62.6 °F 59.0 °F 88% 29.98 in 10.0 mi West 4.6 mph - N/A   Clear
10:15 PM 64.4 °F 59.0 °F 83% 29.98 in 10.0 mi WNW 6.9 mph - N/A   Clear
10:35 PM 64.4 °F 59.0 °F 83% 29.99 in 10.0 mi NW 8.1 mph - N/A   Clear
10:55 PM 62.6 °F 57.2 °F 82% 30.00 in 10.0 mi NW 5.8 mph - N/A   Clear
11:15 PM 62.6 °F 57.2 °F 82% 30.00 in 10.0 mi NW 3.5 mph - N/A   Clear
11:35 PM 64.4 °F 57.2 °F 77% 30.00 in 10.0 mi Calm Calm - N/A   Clear
11:55 PM 64.4 °F 57.2 °F 77% 30.00 in 10.0 mi NW 3.5 mph - N/A   Clear